Hourly Data Report for March 25, 2021

NANAIMO A
BRITISH COLUMBIA
Current Station Operator: NAVCAN

49°03'16.000" N
123°52'12.000" W
28.00 m
1025365
YCD

Download Data

Hourly Data (March 2021)
Hourly Data Report for March 25, 2021
TIME
LST
Temp Definition
°C
Dew Point Definition
°C
Rel Hum Definition
%
Precip. Amount Definition
mm

Wind Dir Definition
10's deg

Wind Spd Definition
km/h
Visibility Definition
km
Stn Press Definition
kPa
Hmdx Definition


Wind Chill Definition


Weather Definition


00:00 6.7 1.3 68 LegendMM 30 9 LegendMM 100.46     LegendNANA
01:00 6.5 1.1 69 LegendMM 28 12 LegendMM 100.44     LegendNANA
02:00 6.6 0.9 67 LegendMM 29 11 LegendMM 100.45     LegendNANA
03:00 5.9 0.8 70 LegendMM 31 10 LegendMM 100.52     LegendNANA
04:00 3.1 0.6 83 LegendMM 27 6 LegendMM 100.56     LegendNANA
05:00 4.1 0.3 76 LegendMM 32 6 LegendMM 100.61     LegendNANA
06:00 4.7 -0.5 69 LegendMM 32 14 LegendMM 100.76     LegendNANA
07:00 3.8 -0.8 72 LegendMM 19 6 LegendMM 100.80     LegendNANA
08:00 4.7 0.4 74 LegendMM 30 7 LegendMM 100.95     LegendNANA
09:00 7.6 0.1 59 LegendMM 34 17 LegendMM 100.96     LegendNANA
10:00 8.8 0.4 55 LegendMM 34 17 LegendMM 101.04     LegendNANA
11:00 10.2 1.0 53 LegendMM 36 22 LegendMM 101.04     LegendNANA
12:00 11.4 2.4 54 LegendMM 3 21 LegendMM 101.08     LegendNANA
13:00 12.0 2.3 51 LegendMM 1 26 LegendMM 101.10     LegendNANA
14:00 12.2 1.5 48 LegendMM 36 19 LegendMM 101.08     LegendNANA
15:00 12.7 1.1 45 LegendMM 36 25 LegendMM 101.11     LegendNANA
16:00 13.2 1.0 43 LegendMM 35 16 LegendMM 101.14     LegendNANA
17:00 12.7 1.1 45 LegendMM 1 14 LegendMM 101.20     LegendNANA
18:00 11.2 0.8 48 LegendMM 15 10 LegendMM 101.21     LegendNANA
19:00 8.8 1.7 61 LegendMM 23 8 LegendMM 101.26     LegendNANA
20:00 7.5 2.1 69 LegendMM 26 9 LegendMM 101.36     LegendNANA
21:00 6.5 2.2 74 LegendMM 31 4 LegendMM 101.44     LegendNANA
22:00 5.3 2.3 81 LegendMM 26 8 LegendMM 101.50     LegendNANA
23:00 3.6 1.5 86 LegendMM 28 5 LegendMM 101.51     LegendNANA

Notes on Data Quality.

Legend

  • E = Estimated
  • M = Missing
  • NA = Not Available*
  • [empty] = Indicates an unobserved value
Date modified: